Starlink 6298

operational
NORAD ID: 56391 Int'l Des: 2023-061 Owner: SPXS Country: US Constellation: starlink
LEOCIRCULAR

About Starlink 6298

Description loading...

Live Position

Loading 3D Globe...

Upcoming Passes

Altitude History

Altitude vs Time

uPlot chart will show altitude changes over time

Two-Line Element Set

1 56391U 23061T 25304.68898742 .00001708 00000-0 14149-3 0 9990
2 56391 43.0024 178.0627 0002059 278.5647 81.4962 15.02539874137358
Epoch: Oct 31, 2025 • Age: 27 hours

Current Status

Altitude 571.0 km
Velocity 7.58 km/s
Sub-Earth Point -43.16°S, 112.31°E
Launch Date May 4, 2023
Age 2.4 years
Type internet

Technical Details

Classification Payload
Mass 305.00 kg
Dry Mass 290.00 kg
Total Mass 305.00 kg
Length 0.20 m
Diameter 2.80 m
Span 9.00 m
Shape Box + pan
Manufacturer SPXS
Bus Type Starlink
Phase Status In Orbit
Owner/State SPXS/US

Large Constellations

Loading constellations...